owner,sensor,date,latitude,longitude,sea_surface_height_above_sea_level,qcFlag 
DISL,ioos:station:DISL:DISL:1,2017-10-03T21:30:00Z,30.2513,-88.0778,2.344,1111122 
DISL,ioos:station:DISL:DISL:1,2017-10-03T22:30:00Z,30.2513,-88.0778,2.308,1111122 
DISL,ioos:station:DISL:DISL:1,2017-10-03T23:30:00Z,30.2513,-88.0778,2.305,1111122 
DISL,ioos:station:DISL:DISL:1,2017-10-04T00:30:00Z,30.2513,-88.0778,2.298,1111122 
DISL,ioos:station:DISL:DISL:1,2017-10-04T01:30:00Z,30.2513,-88.0778,2.32,1111122 
DISL,ioos:station:DISL:DISL:1,2017-10-04T02:30:00Z,30.2513,-88.0778,2.309,1111122 
DISL,ioos:station:DISL:DISL:1,2017-10-04T03:30:00Z,30.2513,-88.0778,2.306,1111122 
DISL,ioos:station:DISL:DISL:1,2017-10-04T04:30:00Z,30.2513,-88.0778,2.415,1111122 
DISL,ioos:station:DISL:DISL:1,2017-10-04T05:30:00Z,30.2513,-88.0778,2.335,1111122 
DISL,ioos:station:DISL:DISL:1,2017-10-04T06:30:00Z,30.2513,-88.0778,2.292,1111122 
DISL,ioos:station:DISL:DISL:1,2017-10-04T07:30:00Z,30.2513,-88.0778,2.271,1111122 
DISL,ioos:station:DISL:DISL:1,2017-10-04T08:30:00Z,30.2513,-88.0778,2.201,1111122 
DISL,ioos:station:DISL:DISL:1,2017-10-04T09:30:00Z,30.2513,-88.0778,2.321,1111122 
DISL,ioos:station:DISL:DISL:1,2017-10-04T11:00:00Z,30.2513,-88.0778,2.374,1111122 
DISL,ioos:station:DISL:DISL:1,2017-10-04T12:30:00Z,30.2513,-88.0778,2.366,1111122 
DISL,ioos:station:DISL:DISL:1,2017-10-04T13:30:00Z,30.2513,-88.0778,2.392,1111122 
DISL,ioos:station:DISL:DISL:1,2017-10-04T14:30:00Z,30.2513,-88.0778,2.337,1111122 
DISL,ioos:station:DISL:DISL:1,2017-10-04T15:30:00Z,30.2513,-88.0778,2.386,1111122 
DISL,ioos:station:DISL:DISL:1,2017-10-04T16:30:00Z,30.2513,-88.0778,2.354,1111122 
DISL,ioos:station:DISL:DISL:1,2017-10-04T17:30:00Z,30.2513,-88.0778,2.398,1111122 
DISL,ioos:station:DISL:DISL:1,2017-10-04T18:30:00Z,30.2513,-88.0778,2.384,1111122 
DISL,ioos:station:DISL:DISL:1,2017-10-04T19:30:00Z,30.2513,-88.0778,2.352,1111122 
DISL,ioos:station:DISL:DISL:1,2017-10-04T20:30:00Z,30.2513,-88.0778,2.329,1111122 
DISL,ioos:station:DISL:DISL:1,2017-10-04T21:30:00Z,30.2513,-88.0778,2.325,1111122 
DISL,ioos:station:DISL:DISL:1,2017-10-04T22:30:00Z,30.2513,-88.0778,2.3,1111122 
DISL,ioos:station:DISL:DISL:1,2017-10-04T23:30:00Z,30.2513,-88.0778,2.314,1111122 
DISL,ioos:station:DISL:DISL:1,2017-10-05T00:30:00Z,30.2513,-88.0778,2.32,1111122 
DISL,ioos:station:DISL:DISL:1,2017-10-05T01:30:00Z,30.2513,-88.0778,2.311,1111122 
DISL,ioos:station:DISL:DISL:1,2017-10-05T02:30:00Z,30.2513,-88.0778,2.354,1111122 
DISL,ioos:station:DISL:DISL:1,2017-10-05T03:30:00Z,30.2513,-88.0778,2.348,1111122 
DISL,ioos:station:DISL:DISL:1,2017-10-05T04:30:00Z,30.2513,-88.0778,2.386,1111122 
DISL,ioos:station:DISL:DISL:1,2017-10-05T05:30:00Z,30.2513,-88.0778,2.367,1111122 
DISL,ioos:station:DISL:DISL:1,2017-10-05T06:00:00Z,30.2513,-88.0778,2.388,1111122 
DISL,ioos:station:DISL:DISL:1,2017-10-05T07:30:00Z,30.2513,-88.0778,2.287,1111122 
DISL,ioos:station:DISL:DISL:1,2017-10-05T08:00:00Z,30.2513,-88.0778,2.357,1111122 
DISL,ioos:station:DISL:DISL:1,2017-10-05T09:30:00Z,30.2513,-88.0778,2.223,1111122 
DISL,ioos:station:DISL:DISL:1,2017-10-05T10:30:00Z,30.2513,-88.0778,2.269,1111122 
DISL,ioos:station:DISL:DISL:1,2017-10-05T11:30:00Z,30.2513,-88.0778,2.367,1111122 
DISL,ioos:station:DISL:DISL:1,2017-10-05T12:30:00Z,30.2513,-88.0778,2.377,1111122 
DISL,ioos:station:DISL:DISL:1,2017-10-05T13:30:00Z,30.2513,-88.0778,2.397,1111122 
DISL,ioos:station:DISL:DISL:1,2017-10-05T14:30:00Z,30.2513,-88.0778,2.399,1111122 
DISL,ioos:station:DISL:DISL:1,2017-10-05T15:30:00Z,30.2513,-88.0778,2.502,1111122 
DISL,ioos:station:DISL:DISL:1,2017-10-05T16:30:00Z,30.2513,-88.0778,2.411,1111122 
DISL,ioos:station:DISL:DISL:1,2017-10-05T17:30:00Z,30.2513,-88.0778,2.43,1111122 
DISL,ioos:station:DISL:DISL:1,2017-10-05T18:30:00Z,30.2513,-88.0778,2.445,1111122 
DISL,ioos:station:DISL:DISL:1,2017-10-05T19:30:00Z,30.2513,-88.0778,2.431,1111122 
DISL,ioos:station:DISL:DISL:1,2017-10-05T20:30:00Z,30.2513,-88.0778,2.383,1111122 
DISL,ioos:station:DISL:DISL:1,2017-10-05T21:30:00Z,30.2513,-88.0778,2.37,1111122 
DISL,ioos:station:DISL:DISL:1,2017-10-05T22:30:00Z,30.2513,-88.0778,2.357,1111122 
DISL,ioos:station:DISL:DISL:1,2017-10-05T23:30:00Z,30.2513,-88.0778,2.334,1111122 
DISL,ioos:station:DISL:DISL:1,2017-10-06T00:30:00Z,30.2513,-88.0778,2.35,1111122 
DISL,ioos:station:DISL:DISL:1,2017-10-06T01:30:00Z,30.2513,-88.0778,2.349,1111122 
DISL,ioos:station:DISL:DISL:1,2017-10-06T02:30:00Z,30.2513,-88.0778,2.357,1111122 
DISL,ioos:station:DISL:DISL:1,2017-10-06T03:30:00Z,30.2513,-88.0778,2.36,1111122 
DISL,ioos:station:DISL:DISL:1,2017-10-06T04:30:00Z,30.2513,-88.0778,2.351,1111122 
DISL,ioos:station:DISL:DISL:1,2017-10-06T05:30:00Z,30.2513,-88.0778,2.321,1111122 
DISL,ioos:station:DISL:DISL:1,2017-10-06T06:30:00Z,30.2513,-88.0778,2.37,1111122 
DISL,ioos:station:DISL:DISL:1,2017-10-06T07:30:00Z,30.2513,-88.0778,2.305,1111122 
DISL,ioos:station:DISL:DISL:1,2017-10-06T08:30:00Z,30.2513,-88.0778,2.251,1111122 
DISL,ioos:station:DISL:DISL:1,2017-10-06T09:30:00Z,30.2513,-88.0778,2.251,1111122 
DISL,ioos:station:DISL:DISL:1,2017-10-06T10:30:00Z,30.2513,-88.0778,2.315,1111122 
DISL,ioos:station:DISL:DISL:1,2017-10-06T11:30:00Z,30.2513,-88.0778,2.325,1111122 
DISL,ioos:station:DISL:DISL:1,2017-10-06T12:30:00Z,30.2513,-88.0778,2.237,1111122 
DISL,ioos:station:DISL:DISL:1,2017-10-06T13:30:00Z,30.2513,-88.0778,2.292,1111122 
DISL,ioos:station:DISL:DISL:1,2017-10-06T14:30:00Z,30.2513,-88.0778,2.265,1111122 
DISL,ioos:station:DISL:DISL:1,2017-10-06T15:30:00Z,30.2513,-88.0778,2.337,1111122 
DISL,ioos:station:DISL:DISL:1,2017-10-06T16:30:00Z,30.2513,-88.0778,2.364,1111122 
DISL,ioos:station:DISL:DISL:1,2017-10-06T17:30:00Z,30.2513,-88.0778,2.389,1111122 
DISL,ioos:station:DISL:DISL:1,2017-10-06T18:30:00Z,30.2513,-88.0778,2.429,1111122 
DISL,ioos:station:DISL:DISL:1,2017-10-06T19:30:00Z,30.2513,-88.0778,2.443,1111122 
DISL,ioos:station:DISL:DISL:1,2017-10-06T20:30:00Z,30.2513,-88.0778,2.477,1111122 
DISL,ioos:station:DISL:DISL:1,2017-10-06T21:30:00Z,30.2513,-88.0778,2.489,1111122 
DISL,ioos:station:DISL:DISL:1,2017-10-06T22:30:00Z,30.2513,-88.0778,2.495,1111122 
DISL,ioos:station:DISL:DISL:1,2017-10-06T23:30:00Z,30.2513,-88.0778,2.531,1111122 
DISL,ioos:station:DISL:DISL:1,2017-10-07T00:30:00Z,30.2513,-88.0778,2.555,1111122 
DISL,ioos:station:DISL:DISL:1,2017-10-07T01:00:00Z,30.2513,-88.0778,2.544,1111122 
DISL,ioos:station:DISL:DISL:1,2017-10-07T02:30:00Z,30.2513,-88.0778,2.581,1111122 
DISL,ioos:station:DISL:DISL:1,2017-10-07T03:30:00Z,30.2513,-88.0778,2.685,1111122 
DISL,ioos:station:DISL:DISL:1,2017-10-07T04:30:00Z,30.2513,-88.0778,2.629,1111122 
DISL,ioos:station:DISL:DISL:1,2017-10-07T05:30:00Z,30.2513,-88.0778,2.64,1111122 
DISL,ioos:station:DISL:DISL:1,2017-10-07T06:30:00Z,30.2513,-88.0778,2.619,1111122 
DISL,ioos:station:DISL:DISL:1,2017-10-07T07:30:00Z,30.2513,-88.0778,2.615,1111122 
DISL,ioos:station:DISL:DISL:1,2017-10-07T08:30:00Z,30.2513,-88.0778,2.567,1111122 
DISL,ioos:station:DISL:DISL:1,2017-10-07T09:30:00Z,30.2513,-88.0778,2.52,1111122 
DISL,ioos:station:DISL:DISL:1,2017-10-07T10:30:00Z,30.2513,-88.0778,2.514,1111122 
DISL,ioos:station:DISL:DISL:1,2017-10-07T11:30:00Z,30.2513,-88.0778,2.483,1111122 
DISL,ioos:station:DISL:DISL:1,2017-10-07T12:30:00Z,30.2513,-88.0778,2.486,1111122 
DISL,ioos:station:DISL:DISL:1,2017-10-07T13:30:00Z,30.2513,-88.0778,2.471,1111122 
DISL,ioos:station:DISL:DISL:1,2017-10-07T14:30:00Z,30.2513,-88.0778,2.479,1111122 
DISL,ioos:station:DISL:DISL:1,2017-10-07T15:30:00Z,30.2513,-88.0778,2.611,1111122 
DISL,ioos:station:DISL:DISL:1,2017-10-07T16:30:00Z,30.2513,-88.0778,2.574,1111122 
DISL,ioos:station:DISL:DISL:1,2017-10-07T17:30:00Z,30.2513,-88.0778,2.543,1111122 
DISL,ioos:station:DISL:DISL:1,2017-10-07T18:30:00Z,30.2513,-88.0778,2.629,1111122 
DISL,ioos:station:DISL:DISL:1,2017-10-07T19:30:00Z,30.2513,-88.0778,2.582,1111122 
DISL,ioos:station:DISL:DISL:1,2017-10-07T20:30:00Z,30.2513,-88.0778,2.704,1111122 
DISL,ioos:station:DISL:DISL:1,2017-10-07T21:00:00Z,30.2513,-88.0778,2.592,1111122 
DISL,ioos:station:DISL:DISL:1,2017-10-09T17:30:00Z,30.2513,-88.0778,2.286,1111122 
DISL,ioos:station:DISL:DISL:1,2017-10-10T15:30:00Z,30.2513,-88.0778,2.246,1111122 
DISL,ioos:station:DISL:DISL:1,2017-10-10T16:30:00Z,30.2513,-88.0778,2.205,1111122 
DISL,ioos:station:DISL:DISL:1,2017-10-10T17:30:00Z,30.2513,-88.0778,2.181,1111122 
DISL,ioos:station:DISL:DISL:1,2017-10-10T18:30:00Z,30.2513,-88.0778,2.162,1111122 
DISL,ioos:station:DISL:DISL:1,2017-10-10T19:30:00Z,30.2513,-88.0778,2.173,1111122 
DISL,ioos:station:DISL:DISL:1,2017-10-10T20:30:00Z,30.2513,-88.0778,2.197,1111122 
DISL,ioos:station:DISL:DISL:1,2017-10-10T21:30:00Z,30.2513,-88.0778,2.227,1111122 
DISL,ioos:station:DISL:DISL:1,2017-10-10T22:30:00Z,30.2513,-88.0778,2.276,1111122 
DISL,ioos:station:DISL:DISL:1,2017-10-10T23:30:00Z,30.2513,-88.0778,2.323,1111122 
DISL,ioos:station:DISL:DISL:1,2017-10-11T00:30:00Z,30.2513,-88.0778,2.38,1111122 
DISL,ioos:station:DISL:DISL:1,2017-10-11T01:30:00Z,30.2513,-88.0778,2.437,1111122 
DISL,ioos:station:DISL:DISL:1,2017-10-11T02:30:00Z,30.2513,-88.0778,2.485,1111122 
DISL,ioos:station:DISL:DISL:1,2017-10-11T03:30:00Z,30.2513,-88.0778,2.528,1111122 
DISL,ioos:station:DISL:DISL:1,2017-10-11T04:30:00Z,30.2513,-88.0778,2.582,1111122 
DISL,ioos:station:DISL:DISL:1,2017-10-11T05:30:00Z,30.2513,-88.0778,2.604,1111122 
DISL,ioos:station:DISL:DISL:1,2017-10-11T06:30:00Z,30.2513,-88.0778,2.601,1111122 
DISL,ioos:station:DISL:DISL:1,2017-10-11T07:30:00Z,30.2513,-88.0778,2.6,1111122 
DISL,ioos:station:DISL:DISL:1,2017-10-11T08:30:00Z,30.2513,-88.0778,2.562,1111122 
DISL,ioos:station:DISL:DISL:1,2017-10-11T09:30:00Z,30.2513,-88.0778,2.515,1111122 
DISL,ioos:station:DISL:DISL:1,2017-10-11T10:30:00Z,30.2513,-88.0778,2.468,1111122 
DISL,ioos:station:DISL:DISL:1,2017-10-11T11:30:00Z,30.2513,-88.0778,2.426,1111122 
DISL,ioos:station:DISL:DISL:1,2017-10-11T12:30:00Z,30.2513,-88.0778,2.363,1111122 
DISL,ioos:station:DISL:DISL:1,2017-10-11T13:30:00Z,30.2513,-88.0778,2.287,1111122 
DISL,ioos:station:DISL:DISL:1,2017-10-11T14:30:00Z,30.2513,-88.0778,2.222,1111122 
DISL,ioos:station:DISL:DISL:1,2017-10-11T15:30:00Z,30.2513,-88.0778,2.181,1111122 
DISL,ioos:station:DISL:DISL:1,2017-10-11T16:30:00Z,30.2513,-88.0778,2.135,1111122 
DISL,ioos:station:DISL:DISL:1,2017-10-11T17:30:00Z,30.2513,-88.0778,2.106,1111122 
DISL,ioos:station:DISL:DISL:1,2017-10-11T18:30:00Z,30.2513,-88.0778,2.072,1111122 
DISL,ioos:station:DISL:DISL:1,2017-10-11T19:30:00Z,30.2513,-88.0778,2.059,1111122 
DISL,ioos:station:DISL:DISL:1,2017-10-11T20:30:00Z,30.2513,-88.0778,2.061,1111122 
DISL,ioos:station:DISL:DISL:1,2017-10-11T21:30:00Z,30.2513,-88.0778,2.095,1111122 
DISL,ioos:station:DISL:DISL:1,2017-10-11T22:30:00Z,30.2513,-88.0778,2.121,1111122 
DISL,ioos:station:DISL:DISL:1,2017-10-11T23:30:00Z,30.2513,-88.0778,2.18,1111122 
DISL,ioos:station:DISL:DISL:1,2017-10-12T00:30:00Z,30.2513,-88.0778,2.25,1111122 
DISL,ioos:station:DISL:DISL:1,2017-10-12T01:30:00Z,30.2513,-88.0778,2.337,1111122 
DISL,ioos:station:DISL:DISL:1,2017-10-12T02:30:00Z,30.2513,-88.0778,2.353,1111122 
DISL,ioos:station:DISL:DISL:1,2017-10-12T03:30:00Z,30.2513,-88.0778,2.407,1111122 
DISL,ioos:station:DISL:DISL:1,2017-10-12T04:30:00Z,30.2513,-88.0778,2.464,1111122 
DISL,ioos:station:DISL:DISL:1,2017-10-12T05:30:00Z,30.2513,-88.0778,2.509,1111122 
DISL,ioos:station:DISL:DISL:1,2017-10-12T06:30:00Z,30.2513,-88.0778,2.564,1111122 
DISL,ioos:station:DISL:DISL:1,2017-10-12T07:30:00Z,30.2513,-88.0778,2.547,1111122 
DISL,ioos:station:DISL:DISL:1,2017-10-12T08:30:00Z,30.2513,-88.0778,2.553,1111122 
DISL,ioos:station:DISL:DISL:1,2017-10-12T09:30:00Z,30.2513,-88.0778,2.525,1111122 
DISL,ioos:station:DISL:DISL:1,2017-10-12T10:30:00Z,30.2513,-88.0778,2.508,1111122 
DISL,ioos:station:DISL:DISL:1,2017-10-12T11:30:00Z,30.2513,-88.0778,2.46,1111122 
DISL,ioos:station:DISL:DISL:1,2017-10-12T12:30:00Z,30.2513,-88.0778,2.439,1111122 
DISL,ioos:station:DISL:DISL:1,2017-10-12T13:30:00Z,30.2513,-88.0778,2.391,1111122 
DISL,ioos:station:DISL:DISL:1,2017-10-12T14:30:00Z,30.2513,-88.0778,2.348,1111122 
DISL,ioos:station:DISL:DISL:1,2017-10-12T15:00:00Z,30.2513,-88.0778,2.192,1111122 
DISL,ioos:station:DISL:DISL:1,2017-10-12T16:30:00Z,30.2513,-88.0778,2.196,1111122 
DISL,ioos:station:DISL:DISL:1,2017-10-12T19:30:00Z,30.2513,-88.0778,2.107,1111122 
DISL,ioos:station:DISL:DISL:1,2017-10-12T20:30:00Z,30.2513,-88.0778,2.101,1111122 
DISL,ioos:station:DISL:DISL:1,2017-10-12T21:30:00Z,30.2513,-88.0778,2.138,1111122 
DISL,ioos:station:DISL:DISL:1,2017-10-12T22:30:00Z,30.2513,-88.0778,2.164,1111122 
DISL,ioos:station:DISL:DISL:1,2017-10-12T23:30:00Z,30.2513,-88.0778,2.217,1111122 
DISL,ioos:station:DISL:DISL:1,2017-10-13T00:30:00Z,30.2513,-88.0778,2.225,1111122 
DISL,ioos:station:DISL:DISL:1,2017-10-13T01:30:00Z,30.2513,-88.0778,2.29,1111122 
DISL,ioos:station:DISL:DISL:1,2017-10-13T02:30:00Z,30.2513,-88.0778,2.36,1111122 
DISL,ioos:station:DISL:DISL:1,2017-10-13T03:00:00Z,30.2513,-88.0778,2.368,1111122 
DISL,ioos:station:DISL:DISL:1,2017-10-13T04:30:00Z,30.2513,-88.0778,2.411,1111122 
DISL,ioos:station:DISL:DISL:1,2017-10-13T05:30:00Z,30.2513,-88.0778,2.433,1111122 
DISL,ioos:station:DISL:DISL:1,2017-10-13T06:30:00Z,30.2513,-88.0778,2.448,1111122 
DISL,ioos:station:DISL:DISL:1,2017-10-13T07:30:00Z,30.2513,-88.0778,2.467,1111122 
DISL,ioos:station:DISL:DISL:1,2017-10-13T08:30:00Z,30.2513,-88.0778,2.481,1111122 
DISL,ioos:station:DISL:DISL:1,2017-10-13T09:30:00Z,30.2513,-88.0778,2.478,1111122 
DISL,ioos:station:DISL:DISL:1,2017-10-13T10:30:00Z,30.2513,-88.0778,2.464,1111122 
DISL,ioos:station:DISL:DISL:1,2017-10-13T11:30:00Z,30.2513,-88.0778,2.457,1111122 
DISL,ioos:station:DISL:DISL:1,2017-10-13T12:30:00Z,30.2513,-88.0778,2.423,1111122 
DISL,ioos:station:DISL:DISL:1,2017-10-13T13:30:00Z,30.2513,-88.0778,2.388,1111122 
DISL,ioos:station:DISL:DISL:1,2017-10-13T14:30:00Z,30.2513,-88.0778,2.325,1111122 
DISL,ioos:station:DISL:DISL:1,2017-10-13T15:30:00Z,30.2513,-88.0778,2.27,1111122 
DISL,ioos:station:DISL:DISL:1,2017-10-13T16:30:00Z,30.2513,-88.0778,2.231,1111122 
DISL,ioos:station:DISL:DISL:1,2017-10-13T17:30:00Z,30.2513,-88.0778,2.203,1111122 
DISL,ioos:station:DISL:DISL:1,2017-10-13T18:30:00Z,30.2513,-88.0778,2.165,1111122 
DISL,ioos:station:DISL:DISL:1,2017-10-13T19:30:00Z,30.2513,-88.0778,2.121,1111122 
DISL,ioos:station:DISL:DISL:1,2017-10-13T20:30:00Z,30.2513,-88.0778,2.11,1111122 
DISL,ioos:station:DISL:DISL:1,2017-10-13T21:30:00Z,30.2513,-88.0778,2.1,1111122 
DISL,ioos:station:DISL:DISL:1,2017-10-13T22:30:00Z,30.2513,-88.0778,2.119,1111122 
DISL,ioos:station:DISL:DISL:1,2017-10-13T23:30:00Z,30.2513,-88.0778,2.151,1111122 
DISL,ioos:station:DISL:DISL:1,2017-10-14T00:30:00Z,30.2513,-88.0778,2.167,1111122 
DISL,ioos:station:DISL:DISL:1,2017-10-14T01:30:00Z,30.2513,-88.0778,2.217,1111122 
DISL,ioos:station:DISL:DISL:1,2017-10-14T02:30:00Z,30.2513,-88.0778,2.266,1111122 
DISL,ioos:station:DISL:DISL:1,2017-10-14T03:30:00Z,30.2513,-88.0778,2.296,1111122 
DISL,ioos:station:DISL:DISL:1,2017-10-14T04:30:00Z,30.2513,-88.0778,2.353,1111122 
DISL,ioos:station:DISL:DISL:1,2017-10-14T05:30:00Z,30.2513,-88.0778,2.375,1111122 
DISL,ioos:station:DISL:DISL:1,2017-10-14T06:30:00Z,30.2513,-88.0778,2.407,1111122 
DISL,ioos:station:DISL:DISL:1,2017-10-14T07:30:00Z,30.2513,-88.0778,2.422,1111122 
DISL,ioos:station:DISL:DISL:1,2017-10-14T08:30:00Z,30.2513,-88.0778,2.455,1111122 
DISL,ioos:station:DISL:DISL:1,2017-10-14T09:30:00Z,30.2513,-88.0778,2.451,1111122 
DISL,ioos:station:DISL:DISL:1,2017-10-14T10:30:00Z,30.2513,-88.0778,2.454,1111122 
DISL,ioos:station:DISL:DISL:1,2017-10-14T11:30:00Z,30.2513,-88.0778,2.446,1111122 
DISL,ioos:station:DISL:DISL:1,2017-10-14T12:30:00Z,30.2513,-88.0778,2.446,1111122 
DISL,ioos:station:DISL:DISL:1,2017-10-14T13:30:00Z,30.2513,-88.0778,2.43,1111122 
DISL,ioos:station:DISL:DISL:1,2017-10-14T14:30:00Z,30.2513,-88.0778,2.377,1111122 
DISL,ioos:station:DISL:DISL:1,2017-10-14T15:30:00Z,30.2513,-88.0778,2.315,1111122 
DISL,ioos:station:DISL:DISL:1,2017-10-14T16:30:00Z,30.2513,-88.0778,2.271,1111122 
DISL,ioos:station:DISL:DISL:1,2017-10-14T17:00:00Z,30.2513,-88.0778,2.262,1111122 
DISL,ioos:station:DISL:DISL:1,2017-10-14T18:00:00Z,30.2513,-88.0778,2.223,1111122 
DISL,ioos:station:DISL:DISL:1,2017-10-14T19:30:00Z,30.2513,-88.0778,2.182,1111122 
DISL,ioos:station:DISL:DISL:1,2017-10-14T20:30:00Z,30.2513,-88.0778,2.164,1111122 
DISL,ioos:station:DISL:DISL:1,2017-10-14T21:30:00Z,30.2513,-88.0778,2.166,1111122 
DISL,ioos:station:DISL:DISL:1,2017-10-14T22:30:00Z,30.2513,-88.0778,2.161,1111122 
DISL,ioos:station:DISL:DISL:1,2017-10-14T23:30:00Z,30.2513,-88.0778,2.178,1111122 
DISL,ioos:station:DISL:DISL:1,2017-10-15T00:30:00Z,30.2513,-88.0778,2.205,1111122 
DISL,ioos:station:DISL:DISL:1,2017-10-15T01:30:00Z,30.2513,-88.0778,2.24,1111122 
DISL,ioos:station:DISL:DISL:1,2017-10-15T03:30:00Z,30.2513,-88.0778,2.314,1111122 
DISL,ioos:station:DISL:DISL:1,2017-10-15T04:30:00Z,30.2513,-88.0778,2.334,1111122 
DISL,ioos:station:DISL:DISL:1,2017-10-15T05:30:00Z,30.2513,-88.0778,2.362,1111122 
DISL,ioos:station:DISL:DISL:1,2017-10-15T06:30:00Z,30.2513,-88.0778,2.397,1111122 
DISL,ioos:station:DISL:DISL:1,2017-10-15T07:30:00Z,30.2513,-88.0778,2.432,1111122 
DISL,ioos:station:DISL:DISL:1,2017-10-15T08:30:00Z,30.2513,-88.0778,2.461,1111122 
DISL,ioos:station:DISL:DISL:1,2017-10-15T09:30:00Z,30.2513,-88.0778,2.468,1111122 
DISL,ioos:station:DISL:DISL:1,2017-10-15T10:30:00Z,30.2513,-88.0778,2.486,1111122 
DISL,ioos:station:DISL:DISL:1,2017-10-15T11:30:00Z,30.2513,-88.0778,2.483,1111122 
DISL,ioos:station:DISL:DISL:1,2017-10-15T12:30:00Z,30.2513,-88.0778,2.489,1111122 
DISL,ioos:station:DISL:DISL:1,2017-10-15T13:30:00Z,30.2513,-88.0778,2.487,1111122 
DISL,ioos:station:DISL:DISL:1,2017-10-15T14:30:00Z,30.2513,-88.0778,2.468,1111122 
DISL,ioos:station:DISL:DISL:1,2017-10-15T15:30:00Z,30.2513,-88.0778,2.425,1111122 
DISL,ioos:station:DISL:DISL:1,2017-10-15T16:30:00Z,30.2513,-88.0778,2.397,1111122 
DISL,ioos:station:DISL:DISL:1,2017-10-15T17:30:00Z,30.2513,-88.0778,2.354,1111122 
DISL,ioos:station:DISL:DISL:1,2017-10-15T18:30:00Z,30.2513,-88.0778,2.331,1111122 
DISL,ioos:station:DISL:DISL:1,2017-10-15T21:30:00Z,30.2513,-88.0778,2.26,1111122 
DISL,ioos:station:DISL:DISL:1,2017-10-15T22:30:00Z,30.2513,-88.0778,2.27,1111122 
DISL,ioos:station:DISL:DISL:1,2017-10-15T23:30:00Z,30.2513,-88.0778,2.263,1111122 
DISL,ioos:station:DISL:DISL:1,2017-10-16T00:30:00Z,30.2513,-88.0778,2.29,1111122 
DISL,ioos:station:DISL:DISL:1,2017-10-16T01:30:00Z,30.2513,-88.0778,2.296,1111122 
DISL,ioos:station:DISL:DISL:1,2017-10-16T02:30:00Z,30.2513,-88.0778,2.324,1111122 
DISL,ioos:station:DISL:DISL:1,2017-10-16T03:30:00Z,30.2513,-88.0778,2.347,1111122 
DISL,ioos:station:DISL:DISL:1,2017-10-16T04:30:00Z,30.2513,-88.0778,2.336,1111122 
DISL,ioos:station:DISL:DISL:1,2017-10-16T05:30:00Z,30.2513,-88.0778,2.371,1111122 
DISL,ioos:station:DISL:DISL:1,2017-10-16T06:30:00Z,30.2513,-88.0778,2.354,1111122 
DISL,ioos:station:DISL:DISL:1,2017-10-16T07:30:00Z,30.2513,-88.0778,2.366,1111122 
DISL,ioos:station:DISL:DISL:1,2017-10-16T08:30:00Z,30.2513,-88.0778,2.342,1111122 
DISL,ioos:station:DISL:DISL:1,2017-10-16T09:30:00Z,30.2513,-88.0778,2.33,1111122 
DISL,ioos:station:DISL:DISL:1,2017-10-16T10:30:00Z,30.2513,-88.0778,2.407,1111122 
DISL,ioos:station:DISL:DISL:1,2017-10-16T11:30:00Z,30.2513,-88.0778,2.325,1111122 
DISL,ioos:station:DISL:DISL:1,2017-10-16T12:30:00Z,30.2513,-88.0778,2.342,1111122 
DISL,ioos:station:DISL:DISL:1,2017-10-16T13:30:00Z,30.2513,-88.0778,2.331,1111122 
DISL,ioos:station:DISL:DISL:1,2017-10-16T14:30:00Z,30.2513,-88.0778,2.31,1111122 
DISL,ioos:station:DISL:DISL:1,2017-10-16T15:30:00Z,30.2513,-88.0778,2.262,1111122 
DISL,ioos:station:DISL:DISL:1,2017-10-16T16:30:00Z,30.2513,-88.0778,2.154,1111122 
DISL,ioos:station:DISL:DISL:1,2017-10-16T17:00:00Z,30.2513,-88.0778,2.248,1111122 
DISL,ioos:station:DISL:DISL:1,2017-10-16T18:30:00Z,30.2513,-88.0778,2.352,1111122 
DISL,ioos:station:DISL:DISL:1,2017-10-16T19:00:00Z,30.2513,-88.0778,2.285,1111122 
DISL,ioos:station:DISL:DISL:1,2017-10-16T20:30:00Z,30.2513,-88.0778,2.26,1111122 
DISL,ioos:station:DISL:DISL:1,2017-10-16T21:30:00Z,30.2513,-88.0778,2.108,1111122 
DISL,ioos:station:DISL:DISL:1,2017-10-16T22:30:00Z,30.2513,-88.0778,2.126,1111122 
DISL,ioos:station:DISL:DISL:1,2017-10-16T23:30:00Z,30.2513,-88.0778,2.138,1111122 
DISL,ioos:station:DISL:DISL:1,2017-10-17T00:30:00Z,30.2513,-88.0778,2.236,1111122 
DISL,ioos:station:DISL:DISL:1,2017-10-17T01:30:00Z,30.2513,-88.0778,2.096,1111122 
DISL,ioos:station:DISL:DISL:1,2017-10-17T02:30:00Z,30.2513,-88.0778,2.141,1111122 
DISL,ioos:station:DISL:DISL:1,2017-10-17T03:30:00Z,30.2513,-88.0778,2.092,1111122 
DISL,ioos:station:DISL:DISL:1,2017-10-17T04:30:00Z,30.2513,-88.0778,2.099,1111122 
DISL,ioos:station:DISL:DISL:1,2017-10-17T05:30:00Z,30.2513,-88.0778,2.138,1111122 
DISL,ioos:station:DISL:DISL:1,2017-10-17T06:30:00Z,30.2513,-88.0778,2.147,1111122 
DISL,ioos:station:DISL:DISL:1,2017-10-17T07:30:00Z,30.2513,-88.0778,2.182,1111122 
DISL,ioos:station:DISL:DISL:1,2017-10-17T08:30:00Z,30.2513,-88.0778,2.25,1111122 
DISL,ioos:station:DISL:DISL:1,2017-10-17T09:30:00Z,30.2513,-88.0778,2.209,1111122 
DISL,ioos:station:DISL:DISL:1,2017-10-17T10:30:00Z,30.2513,-88.0778,2.243,1111122 
DISL,ioos:station:DISL:DISL:1,2017-10-17T11:30:00Z,30.2513,-88.0778,2.27,1111122 
DISL,ioos:station:DISL:DISL:1,2017-10-17T12:30:00Z,30.2513,-88.0778,2.271,1111122 
DISL,ioos:station:DISL:DISL:1,2017-10-17T13:00:00Z,30.2513,-88.0778,2.293,1111122 
DISL,ioos:station:DISL:DISL:1,2017-10-17T14:30:00Z,30.2513,-88.0778,2.323,1111122 
DISL,ioos:station:DISL:DISL:1,2017-10-17T15:30:00Z,30.2513,-88.0778,2.37,1111122 
DISL,ioos:station:DISL:DISL:1,2017-10-17T16:30:00Z,30.2513,-88.0778,2.325,1111122 
DISL,ioos:station:DISL:DISL:1,2017-10-17T17:30:00Z,30.2513,-88.0778,2.334,1111122 
DISL,ioos:station:DISL:DISL:1,2017-10-17T18:30:00Z,30.2513,-88.0778,2.331,1111122 
DISL,ioos:station:DISL:DISL:1,2017-10-17T19:30:00Z,30.2513,-88.0778,2.325,1111122 
DISL,ioos:station:DISL:DISL:1,2017-10-17T20:30:00Z,30.2513,-88.0778,2.32,1111122 
DISL,ioos:station:DISL:DISL:1,2017-10-17T21:30:00Z,30.2513,-88.0778,2.318,1111122 
DISL,ioos:station:DISL:DISL:1,2017-10-17T22:30:00Z,30.2513,-88.0778,2.317,1111122 
DISL,ioos:station:DISL:DISL:1,2017-10-17T23:30:00Z,30.2513,-88.0778,2.331,1111122 
DISL,ioos:station:DISL:DISL:1,2017-10-18T00:30:00Z,30.2513,-88.0778,2.276,1111122 
DISL,ioos:station:DISL:DISL:1,2017-10-18T01:30:00Z,30.2513,-88.0778,2.302,1111122 
DISL,ioos:station:DISL:DISL:1,2017-10-18T02:30:00Z,30.2513,-88.0778,2.311,1111122 
DISL,ioos:station:DISL:DISL:1,2017-10-18T03:30:00Z,30.2513,-88.0778,2.316,1111122 
DISL,ioos:station:DISL:DISL:1,2017-10-18T04:30:00Z,30.2513,-88.0778,2.299,1111122 
DISL,ioos:station:DISL:DISL:1,2017-10-18T05:30:00Z,30.2513,-88.0778,2.289,1111122 
DISL,ioos:station:DISL:DISL:1,2017-10-18T06:30:00Z,30.2513,-88.0778,2.267,1111122 
DISL,ioos:station:DISL:DISL:1,2017-10-18T07:30:00Z,30.2513,-88.0778,2.27,1111122 
DISL,ioos:station:DISL:DISL:1,2017-10-18T08:30:00Z,30.2513,-88.0778,2.244,1111122 
DISL,ioos:station:DISL:DISL:1,2017-10-18T09:30:00Z,30.2513,-88.0778,2.24,1111122 
DISL,ioos:station:DISL:DISL:1,2017-10-18T10:30:00Z,30.2513,-88.0778,2.19,1111122 
DISL,ioos:station:DISL:DISL:1,2017-10-18T11:30:00Z,30.2513,-88.0778,2.25,1111122 
DISL,ioos:station:DISL:DISL:1,2017-10-18T12:30:00Z,30.2513,-88.0778,2.25,1111122 
DISL,ioos:station:DISL:DISL:1,2017-10-18T13:30:00Z,30.2513,-88.0778,2.224,1111122 
DISL,ioos:station:DISL:DISL:1,2017-10-18T14:30:00Z,30.2513,-88.0778,2.223,1111122 
DISL,ioos:station:DISL:DISL:1,2017-10-18T15:30:00Z,30.2513,-88.0778,2.233,1111122 
DISL,ioos:station:DISL:DISL:1,2017-10-18T16:30:00Z,30.2513,-88.0778,2.232,1111122 
DISL,ioos:station:DISL:DISL:1,2017-10-18T17:30:00Z,30.2513,-88.0778,2.247,1111122 
DISL,ioos:station:DISL:DISL:1,2017-10-18T18:30:00Z,30.2513,-88.0778,2.278,1111122 